Location: Madden
(51.3728°N, 114.3297°W)
Time: 01:11:38
(UTC+00:00)

Envisat - Pass Details

Date: 17 April 2024
Orbit: 762 x 764 km, 98.3° (Epoch: 24 May)

Event Time Altitude Azimuth Distance (km) Brightness Sun altitude
Rises 10:49:11 0° 17° (NNE) 3,243 7.3 -15.3°
Reaches altitude 10° 10:51:32 10° 21° (NNE) 2,312 6.5 -15.0°
Maximum altitude 10:56:34 58° 101° (E) 894 3.5 -14.4°
Drops below altitude 10° 11:01:33 10° 180° (S) 2,293 5.1 -13.8°
Enters shadow 11:02:22 - 182° (S) 2,618 5.4 -13.7°
